Flag for Vanuatu Weather past 2 weeks in Port Vila, Vanuatu

Now
86 °F

Partly sunny.


Feels Like: 93 °F
Forecast: 76 / 84 °F
Wind: 12 mph from East

Location: Bauerfield Efate

Current Time: Apr 25, 2015 at 1:30:48 PM

Latest Report: Apr 25, 2015 at 12:00 PM


Visibility: N/A

Pressure: 29.83 "Hg

Humidity: 66%

Dew point: 73 °F

Location of Port VilaLocation

Historic Weather in Port Vila — Graph

°F

Port Vila temperature yesterday

Maximum temperature yesterday: 86 °F (at 11:00 AM)
Minimum temperature yesterday: 72 °F (at 6:00 AM)
Average temperature yesterday: 78 °F

Past Weeks' High & Low Weather Summary

 TemperatureHumidityPressure
High88 °F (Apr 11, 1:00 PM)100% (Apr 13, 6:00 PM)30.04 "Hg (Apr 13, 6:00 PM)
Low66 °F (Apr 22, 5:00 AM)59% (Apr 11, 11:00 AM)29.71 "Hg (Apr 12, 3:00 PM)
Average78 °F84%29.89 "Hg
* Reported Apr 10 1:00 PM — Apr 25 12:00 Noon, Port Vila, Weather by CustomWeather, © 2015

Note: Actual official high and low records may vary slightly from our data, if they occured in-between our weather recording intervals... More about our weather records

Advertising

Port Vila weather history for previous 24 hours

 ConditionsComfort  
Time TempWeatherWind HumidityBarometerVisibility
12:00 PM
Sat, Apr 25
86 °FPartly sunny.12 mph66%29.83 "HgN/A
10:00 AM84 °FPartly sunny.8 mph70%29.89 "HgN/A
9:00 AM82 °FScattered clouds.7 mph74%29.92 "HgN/A
8:00 AM77 °FPassing clouds.No wind94%29.89 "HgN/A
7:00 AM72 °FPassing clouds.5 mph94%29.89 "HgN/A
6:00 AM68 °FPassing clouds.1 mph100%29.86 "HgN/A
5:00 AM68 °FPassing clouds.No wind100%29.83 "HgN/A
4:00 AM68 °FPassing clouds.No wind100%29.83 "HgN/A
2:00 AM68 °FPassing clouds.3 mph100%29.83 "HgN/A
1:00 AM72 °FPassing clouds.3 mph94%29.86 "HgN/A
12:00 AM72 °FPassing clouds.No wind94%29.86 "HgN/A
11:00 PM
Fri, Apr 24
72 °FPassing clouds.2 mph94%29.86 "HgN/A
10:00 PM72 °FPassing clouds.2 mph100%29.89 "HgN/A
9:00 PM73 °FPassing clouds.2 mph94%29.89 "HgN/A
8:00 PM75 °FPassing clouds.2 mph94%29.89 "HgN/A
7:00 PM77 °FPassing clouds.2 mph89%29.86 "HgN/A
6:00 PM79 °FPartly cloudy.5 mph84%29.83 "HgN/A
5:00 PM81 °FPartly sunny.8 mph79%29.80 "HgN/A
4:00 PM82 °FPartly sunny.9 mph74%29.80 "HgN/A
3:00 PM84 °FBroken clouds.7 mph70%29.80 "HgN/A
2:00 PM84 °FBroken clouds.12 mph74%29.80 "HgN/A
1:00 PM86 °FBroken clouds.10 mph66%29.83 "HgN/A
Weather by CustomWeather, © 2015

See weather overviewHow to use our weather pages